Location: Buisson
(44.2787°N, 4.9969°E)
Time: 08:50:09
(UTC+00:00)

X-37B - Pass Details

Date: 02 October 2021
Orbit: 385 x 389 km, 45.0° (Epoch: 13 October)

Event Time Altitude Azimuth Distance (km) Brightness Sun altitude
Exits shadow 04:52:50 13° 266° (W) 1,232 2.4 -9.1°
Maximum altitude 04:55:10 30° 207° (SSW) 724 1.7 -8.7°
Drops below altitude 10° 04:58:00 10° 144° (SE) 1,408 3.9 -8.2°
Sets 05:00:12 0° 133° (SE) 2,261 5.2 -7.8°
